Location: Coopersdale
(40.3556°N, 78.9372°W)
Time: 14:50:23
(UTC+00:00)

Courier 1B - All Passes

Search period start: 23 January 2021 00:00
Search period end: 02 February 2021 00:00
Orbit: 962 x 1209 km, 28.3° (Epoch: 22 January)

Date Brightness Start Highest point End Pass type
(mag) Time Alt. Az. Time Alt. Az. Time Alt. Az.
23 Jan - 03:21:59 10° SSE 03:22:52 10° SSE 03:23:44 10° SSE night (unlit)
23 Jan - 05:10:56 10° SW 05:15:52 22° SSE 05:20:44 10° ESE night (unlit)
23 Jan - 07:03:38 10° WSW 07:09:02 28° S 07:14:26 10° SE night (unlit)
23 Jan - 08:57:30 10° WSW 09:02:11 21° SSW 09:06:56 10° SSE visible
24 Jan - 04:17:45 10° SSW 04:22:21 20° SSE 04:26:51 10° ESE night (unlit)
24 Jan - 06:10:04 10° SW 06:15:30 28° S 06:20:51 10° ESE night (unlit)
24 Jan - 08:03:40 10° WSW 08:08:40 24° SSW 08:13:42 10° SE visible
24 Jan - 09:59:28 10° SW 10:01:40 12° SSW 10:03:55 10° S visible
25 Jan - 03:24:46 10° SSW 03:28:50 17° SSE 03:32:48 10° ESE night (unlit)
25 Jan - 05:16:33 10° SW 05:21:57 27° S 05:27:15 10° ESE night (unlit)
25 Jan - 07:09:55 10° WSW 07:15:08 26° S 07:20:22 10° SE night (unlit)
25 Jan - 09:04:43 10° SW 09:08:12 15° SSW 09:11:42 10° SSE visible
26 Jan - 02:32:05 10° S 02:35:18 14° SSE 02:38:27 10° SE night (unlit)
26 Jan - 04:23:04 10° SW 04:28:24 25° S 04:33:35 10° ESE night (unlit)
26 Jan - 06:16:11 10° WSW 06:21:37 28° S 06:26:58 10° SE night (unlit)
26 Jan - 08:10:29 10° WSW 08:14:43 18° SSW 08:18:57 10° SSE visible
27 Jan - 01:40:20 10° SSE 01:41:46 11° SSE 01:43:10 10° SE visible
27 Jan - 03:29:40 10° SW 03:34:52 23° SSE 03:39:52 10° ESE night (unlit)
27 Jan - 05:22:30 10° WSW 05:28:04 29° S 05:33:30 10° ESE night (unlit)
27 Jan - 07:16:27 10° WSW 07:21:13 21° SSW 07:25:57 10° SSE night (unlit)
28 Jan - 02:36:24 10° SSW 02:41:18 20° SSE 02:46:01 10° ESE visible
28 Jan - 04:28:49 10° SW 04:34:31 29° S 04:40:00 10° ESE night (unlit)
28 Jan - 06:22:32 10° WSW 06:27:42 24° SSW 06:32:47 10° SE night (unlit)
28 Jan - 08:18:18 10° SW 08:20:41 12° SSW 08:23:04 10° S night (unlit)
29 Jan - 01:43:19 10° SSW 01:47:43 17° SSE 01:51:59 10° ESE visible
29 Jan - 03:35:12 10° SW 03:40:56 28° S 03:46:25 10° ESE night (unlit)
29 Jan - 05:28:40 10° WSW 05:34:10 27° S 05:39:31 10° SE night (unlit)
29 Jan - 07:23:32 10° WSW 07:27:13 16° SSW 07:30:52 10° SSE night (unlit)
30 Jan - 00:50:32 10° S 00:54:08 14° SSE 00:57:38 10° SE visible
30 Jan - 02:41:38 10° SW 02:47:20 26° S 02:52:47 10° ESE visible
30 Jan - 04:34:51 10° WSW 04:40:37 29° S 04:46:09 10° SE night (unlit)
30 Jan - 06:29:14 10° WSW 06:33:44 19° SSW 06:38:09 10° SSE night (unlit)
30 Jan - 23:58:35 10° S 00:00:33 11° SSE 00:02:29 10° SE visible
31 Jan - 01:48:09 10° SW 01:53:43 24° SSE 01:59:03 10° ESE visible
31 Jan - 03:41:04 10° WSW 03:47:01 30° S 03:52:43 10° ESE night (unlit)
31 Jan - 05:35:08 10° WSW 05:40:14 23° SSW 05:45:11 10° SE night (unlit)
01 Feb - 00:54:49 10° SSW 01:00:05 21° SSE 01:05:10 10° ESE visible
01 Feb - 02:47:19 10° SW 02:53:24 30° S 02:59:12 10° ESE visible
01 Feb - 04:41:07 10° WSW 04:46:41 26° SSW 04:52:02 10° SE night (unlit)
01 Feb - 06:36:44 10° SW 06:39:41 13° SSW 06:42:36 10° S night (unlit)
